Location: Tauranga
(37.6860°S, 176.1670°E)
Time: 19:09:25
(UTC+13:00)

Cosmos 841 Rocket - Pass Details

Date: 24 January 2019
Orbit: 748 x 771 km, 74.0° (Epoch: 20 February)

Event Time Altitude Azimuth Distance (km) Brightness Sun altitude
Rises 22:54:51 0° 206° (SSW) 3,280 8.1 -22.7°
Reaches altitude 10° 22:57:21 10° 212° (SSW) 2,345 7.1 -23.0°
Maximum altitude 23:02:23 44° 282° (WNW) 1,067 4.3 -23.7°
Enters shadow 23:04:11 32° 328° (NNW) 1,302 4.5 -23.9°
